Vernal, UT

3:46 PM MST on November 22, 2019 (GMT -0700)
Vernal

Weather History for KVEL - June, 2019

Change the Weather History Date:

Wednesday, June 12, 2019

  Actual Average Record
Temperature  
Mean Temperature 64 °F 64 °F  
Max Temperature 81 °F 79 °F 96 °F (1956)
Min Temperature 48 °F 50 °F 35 °F (1928)
Degree Days  
Heating Degree Days 0 3  
Month to date heating degree days 38 46  
Since 1 June heating degree days 38 46  
Since 1 July heating degree days 7519 7194  
Cooling Degree Days 0 2  
Month to date cooling degree days 3 19  
Year to date cooling degree days 4 28  
Since 1 June cooling degree days 3 19  
Growing Degree Days 14 (Base 50)    
Moisture  
Dew Point 43 °F    
Average Humidity 42    
Maximum Humidity 63    
Minimum Humidity 26    
Precipitation  
Precipitation 0.00 in 0.03 in 0.58 in (1989)
Month to date precipitation T 0.36  
Year to date precipitation 7.42 3.77  
Sea Level Pressure  
Sea Level Pressure 30.03 in    
Wind  
Wind Speed 3 mph ()    
Max Wind Speed 9 mph    
Max Gust Speed 15 mph    
Visibility 10.0 miles    
Events      
T = Trace of Precipitation, MM = Missing Value Source: Averaged Metar Reports

Daily Weather History Graph

Daily Weather History Graph

Search for Another Location

Airport or City:

Astronomy

Jun. 12, 2019 Rise Set
Actual Time 5:47 AM MDT 8:48 PM MDT
Civil Twilight 5:14 AM MDT 9:21 PM MDT
Nautical Twilight 4:32 AM MDT 10:03 PM MDT
Astronomical Twilight 3:43 AM MDT 10:53 PM MDT
Moon 3:58 PM MDT (6/12) 3:04 AM MDT (6/12)
Length of Visible Light 16h 07m
Length of Day
15h 01m
Waxing Gibbous, 77% of the Moon is Illuminated
Jun 12
Waxing Gibbous
Jun 17
Full
Jun 25
Last Quarter
Jul 2
New
Jul 9
First Quarter

Hourly Weather History & Observations

Time (MDT) Temp. Dew Point Humidity Pressure Visibility Wind Dir Wind Speed Gust Speed Precip Events Conditions
12:53 AM 64.0 °F 37.0 °F 37% 30.06 in 10.0 mi NNE 3.5 mph - N/A   Clear
1:53 AM 57.9 °F 39.9 °F 51% 30.08 in 10.0 mi ESE 6.9 mph - N/A   Clear
2:53 AM 60.1 °F 39.0 °F 46% 30.08 in 10.0 mi NNW 5.8 mph - N/A   Clear
3:53 AM 54.0 °F 39.9 °F 59% 30.10 in 10.0 mi Calm Calm - N/A   Clear
4:53 AM 52.0 °F 39.9 °F 63% 30.11 in 10.0 mi Calm Calm - N/A   Clear
5:53 AM 52.0 °F 39.9 °F 63% 30.12 in 10.0 mi Calm Calm - N/A   Clear
6:53 AM 55.9 °F 43.0 °F 62% 30.13 in 10.0 mi West 4.6 mph - N/A   Clear
7:53 AM 63.0 °F 42.1 °F 46% 30.12 in 10.0 mi Calm Calm - N/A   Clear
8:53 AM 69.1 °F 43.0 °F 39% 30.12 in 10.0 mi ENE 8.1 mph - N/A   Clear
9:53 AM 71.1 °F 41.0 °F 34% 30.12 in 10.0 mi Calm Calm - N/A   Clear
10:53 AM 72.0 °F 42.1 °F 34% 30.10 in 10.0 mi South 6.9 mph - N/A   Clear
11:53 AM 75.9 °F 42.1 °F 30% 30.08 in 10.0 mi NNE 6.9 mph - N/A   Clear
12:53 PM 75.0 °F 39.9 °F 28% 30.06 in 10.0 mi Calm Calm - N/A   Clear
1:53 PM 77.0 °F 43.0 °F 30% 30.04 in 10.0 mi SW 5.8 mph - N/A   Clear
2:53 PM 78.1 °F 42.1 °F 28% 30.01 in 10.0 mi Variable 4.6 mph - N/A   Clear
3:53 PM 79.0 °F 42.1 °F 27% 30.00 in 10.0 mi SSW 6.9 mph - N/A   Clear
4:53 PM 79.0 °F 42.1 °F 27% 29.98 in 10.0 mi West 4.6 mph - N/A   Clear
5:53 PM 79.0 °F 41.0 °F 26% 29.96 in 10.0 mi Calm Calm - N/A   Scattered Clouds
6:53 PM 77.0 °F 43.0 °F 30% 29.94 in 10.0 mi Calm Calm - N/A   Scattered Clouds
7:53 PM 77.0 °F 45.0 °F 32% 29.92 in 10.0 mi NNW 3.5 mph - N/A   Clear
8:53 PM 68.0 °F 51.1 °F 55% 29.92 in 10.0 mi SW 3.5 mph - N/A   Mostly Cloudy
9:53 PM 66.9 °F 50.0 °F 54% 29.92 in 10.0 mi Calm Calm - N/A   Mostly Cloudy
10:53 PM 66.9 °F 48.0 °F 51% 29.91 in 10.0 mi North 6.9 mph - N/A   Clear
11:53 PM 64.9 °F 46.9 °F 52% 29.90 in 10.0 mi WNW 6.9 mph - N/A   Clear